TimeCST,TemperatureF,Dew PointF,Humidity,Sea Level PressureIn,VisibilityMPH,Wind Direction,Wind SpeedMPH,Gust SpeedMPH,PrecipitationIn,Events,Conditions,WindDirDegrees,DateUTC
12:57 AM,53.1,37.9,57,29.95,10.0,South,16.1,-,N/A,,Clear,190,2013-12-19 06:57:00
1:57 AM,53.1,37.9,57,29.94,10.0,South,17.3,26.5,N/A,,Clear,190,2013-12-19 07:57:00
2:57 AM,53.1,39.0,59,29.93,10.0,South,17.3,26.5,N/A,,Clear,190,2013-12-19 08:57:00
3:57 AM,52.0,41.0,66,29.92,10.0,South,16.1,-,N/A,,Clear,190,2013-12-19 09:57:00
4:57 AM,52.0,42.1,69,29.90,10.0,South,16.1,25.3,N/A,,Clear,180,2013-12-19 10:57:00
5:57 AM,51.1,44.1,77,29.89,10.0,South,15.0,-,N/A,,Clear,180,2013-12-19 11:57:00
6:46 AM,51.8,44.6,76,29.89,10.0,South,13.8,-,N/A,,Mostly Cloudy,180,2013-12-19 12:46:00
6:57 AM,52.0,45.0,77,29.89,10.0,South,15.0,-,N/A,,Mostly Cloudy,180,2013-12-19 12:57:00
7:57 AM,53.1,46.9,80,29.89,10.0,South,13.8,25.3,N/A,,Overcast,180,2013-12-19 13:57:00
8:57 AM,54.0,48.0,80,29.88,10.0,South,15.0,28.8,N/A,,Overcast,180,2013-12-19 14:57:00
9:57 AM,55.9,48.0,75,29.88,10.0,South,24.2,36.8,N/A,,Overcast,180,2013-12-19 15:57:00
10:57 AM,55.9,48.9,77,29.89,10.0,South,24.2,29.9,N/A,,Overcast,190,2013-12-19 16:57:00
11:57 AM,57.0,48.9,74,29.86,10.0,South,24.2,28.8,N/A,,Overcast,180,2013-12-19 17:57:00
12:57 PM,57.9,48.9,72,29.80,10.0,South,20.7,28.8,N/A,,Overcast,180,2013-12-19 18:57:00
1:57 PM,57.9,48.9,72,29.77,10.0,South,23.0,28.8,N/A,,Overcast,180,2013-12-19 19:57:00
2:57 PM,59.0,48.9,69,29.76,10.0,South,16.1,25.3,N/A,,Overcast,180,2013-12-19 20:57:00
3:57 PM,59.0,48.9,69,29.74,10.0,South,21.9,26.5,N/A,,Overcast,170,2013-12-19 21:57:00
4:28 PM,59.0,50.0,72,29.76,10.0,South,20.7,29.9,N/A,,Overcast,180,2013-12-19 22:28:00
4:31 PM,59.0,50.0,72,29.76,10.0,South,18.4,29.9,N/A,,Overcast,180,2013-12-19 22:31:00
4:57 PM,59.0,50.0,72,29.75,10.0,South,17.3,25.3,N/A,,Overcast,180,2013-12-19 22:57:00
5:27 PM,57.2,50.0,77,29.75,10.0,South,18.4,-,N/A,,Mostly Cloudy,170,2013-12-19 23:27:00
5:57 PM,57.9,50.0,75,29.74,10.0,South,18.4,-,N/A,,Mostly Cloudy,170,2013-12-19 23:57:00
6:57 PM,57.0,50.0,77,29.74,10.0,SSE,15.0,-,N/A,,Scattered Clouds,160,2013-12-20 00:57:00
7:57 PM,57.9,51.1,78,29.75,10.0,South,11.5,-,N/A,,Mostly Cloudy,170,2013-12-20 01:57:00
8:57 PM,57.0,51.1,81,29.73,10.0,South,13.8,-,N/A,,Clear,170,2013-12-20 02:57:00
9:57 PM,59.0,52.0,78,29.73,10.0,South,16.1,24.2,N/A,,Scattered Clouds,170,2013-12-20 03:57:00
10:57 PM,60.1,54.0,80,29.74,10.0,South,17.3,-,N/A,,Overcast,180,2013-12-20 04:57:00
11:57 PM,61.0,54.0,78,29.73,10.0,South,16.1,-,N/A,,Overcast,180,2013-12-20 05:57:00